Weather History for Lee's Summit, MO

Change the Weather History Date:

Saturday, January 19, 2013

  Actual Average (KMKC) Record (KMKC)
Temperature  
Mean Temperature 50 °F -  
Max Temperature 60 °F 37 °F 63 °F (2014)
Min Temperature 39 °F 21 °F 1 °F (2008)
Degree Days  
Heating Degree Days 14    
Moisture  
Dew Point 28 °F    
Average Humidity 47    
Maximum Humidity 67    
Minimum Humidity 27    
Precipitation  
Precipitation 0.00 in - - ()
Sea Level Pressure  
Sea Level Pressure 30.07 in    
Wind  
Wind Speed 15 mph (WSW)    
Max Wind Speed 20 mph    
Max Gust Speed 30 mph    
Visibility 10 miles    
Events      
Averages and records for this station are not official NWS values.
T = Trace of Precipitation, MM = Missing Value Source: NWS Daily Summary

Daily Weather History Graph

Daily Weather History Graph

Search for Another Location

Airport:

Trip Planner

Search our weather history database for the weather conditions in past years. The results will help you decide how hot, cold, wet, or windy it might be!

Date:

Astronomy

Jan. 19, 2013 Rise Set
Actual Time 7:32 AM CST 5:24 PM CST
Civil Twilight 7:03 AM CST 5:53 PM CST
Nautical Twilight 6:31 AM CST 6:25 PM CST
Astronomical Twilight 5:59 AM CST 6:57 PM CST
Moon 11:50 AM CST (1/19) 1:08 AM CST (1/19)
Length of Visible Light 10h 49m
Length of Day
9h 51m
First Quarter, 57% of the Moon is Illuminated
Jan 19
First Quarter
Jan 26
Full
Feb 3
Last Quarter
Feb 10
New
Feb 17
First Quarter

Hourly Weather History & Observations

Time (CST) Temp. Windchill Dew Point Humidity Pressure Visibility Wind Dir Wind Speed Gust Speed Precip Events Conditions
12:53 AM 46.9 °F - 28.9 °F 50% 30.03 in 10.0 mi SSW 18.4 mph 29.9 mph N/A   Clear
1:53 AM 46.0 °F 38.8 °F 30.0 °F 54% 30.03 in 10.0 mi SSW 18.4 mph 26.5 mph N/A   Clear
2:53 AM 45.0 °F 38.5 °F 30.0 °F 56% 30.03 in 10.0 mi SW 13.8 mph - N/A   Clear
3:53 AM 44.1 °F 36.8 °F 30.0 °F 58% 30.01 in 10.0 mi SW 16.1 mph 25.3 mph N/A   Clear
4:53 AM 43.0 °F 34.8 °F 30.0 °F 60% 30.00 in 10.0 mi SSW 18.4 mph 25.3 mph N/A   Clear
5:53 AM 41.0 °F 33.1 °F 30.9 °F 67% 29.99 in 10.0 mi SSW 15.0 mph 25.3 mph N/A   Clear
6:53 AM 42.1 °F - 30.9 °F 65% 29.99 in 10.0 mi North - - N/A   Clear
7:53 AM 42.1 °F 33.3 °F 30.9 °F 65% 30.00 in 10.0 mi SW 19.6 mph 28.8 mph N/A   Clear
8:53 AM 44.1 °F 35.9 °F 30.9 °F 60% 30.00 in 10.0 mi SW 19.6 mph 29.9 mph N/A   Clear
9:53 AM 46.9 °F - 30.9 °F 54% 30.04 in 10.0 mi SW 16.1 mph 24.2 mph N/A   Clear
10:53 AM 50.0 °F - 28.9 °F 44% 30.04 in 10.0 mi WSW 16.1 mph 24.2 mph N/A   Clear
11:53 AM 54.0 °F - 30.0 °F 40% 30.02 in 10.0 mi WSW 15.0 mph 23.0 mph N/A   Clear
12:53 PM 55.9 °F - 28.0 °F 34% 30.01 in 10.0 mi West 11.5 mph - N/A   Clear
1:53 PM 59.0 °F - 26.1 °F 28% 30.00 in 10.0 mi West 8.1 mph 18.4 mph N/A   Clear
2:53 PM 60.1 °F - 26.1 °F 27% 30.01 in 10.0 mi West 9.2 mph - N/A   Clear
3:53 PM 60.1 °F - 26.1 °F 27% 30.02 in 10.0 mi West 11.5 mph - N/A   Clear
4:53 PM 57.9 °F - 25.0 °F 28% 30.04 in 10.0 mi West 10.4 mph - N/A   Clear
5:53 PM 54.0 °F - 26.1 °F 34% 30.09 in 10.0 mi West 6.9 mph - N/A   Clear
6:53 PM 51.1 °F - 25.0 °F 36% 30.13 in 10.0 mi NNW 9.2 mph - N/A   Clear
7:53 PM 50.0 °F - 26.1 °F 39% 30.17 in 10.0 mi NW 10.4 mph - N/A   Clear
8:53 PM 48.0 °F - 27.0 °F 44% 30.20 in 10.0 mi NNW 10.4 mph - N/A   Clear
9:53 PM 44.1 °F 38.1 °F 28.0 °F 53% 30.22 in 10.0 mi North 11.5 mph - N/A   Clear
10:53 PM 44.1 °F 38.1 °F 26.1 °F 49% 30.25 in 10.0 mi NNW 11.5 mph - N/A   Clear
11:53 PM 39.9 °F 33.9 °F 26.1 °F 58% 30.26 in 10.0 mi NNW 9.2 mph - N/A   Clear